Tracking 33873 objects as of 21-Apr-2026
HD Live streaming from Space Station
objects crossing your sky now

STARLINK-32370

Track STARLINK-32370 now!
10-day predictions
STARLINK-32370 is classified as:


NORAD ID: 61635
Int'l Code: 2024-191Q
Perigee: 489.3 km
Apogee: 491.0 km
Inclination: 43.0 °
Period: 94.3 minutes
Semi major axis: 6861 km
RCS: Unknown
Launch date: October 23, 2024
Source: United States (US)
Launch site: AIR FORCE EASTERN TEST RANGE (AFETR)
Your satellite tracking list
Your tracking list is empty




NASA's NSSDC Master Catalog

Two Line Element Set (TLE):
1 61635U 24191Q   26110.82227538 -.00002020  00000-0 -63885-4 0  9995
2 61635  43.0000 276.2485 0001261 274.2841  85.7866 15.27582194 83984
Source of the keplerian elements: AFSPC